When you browse on this site, cookies collect data to enhance your experience and personalize the content and advertising you see.
Visit our Privacy Policy to learn more. By continuing to use the site, you agree to this use of cookies and data.
  • In Deutschland
  • Länderverzeichnis
  • Für 7 Tage
  • Wassertemperatur
  • Satellitenkarten
  • Wetterkarte
  • Widgets
  • user-avatar
    Anmelden

    Stündliche Wetter Viedma

    Heute, 26 März, Dienstag

    Zeit Temperatur Niederschläge Wind Luftdruck Luftfeuchtigkeit
    00:00 +12°C° 0 mm 3 m/S 767 mmHg 65%
    01:00 +12°C° 0 mm 2 m/S 767 mmHg 67%
    02:00 +12°C° 0 mm 2 m/S 767 mmHg 68%
    03:00 +12°C° 0 mm 2 m/S 767 mmHg 69%
    04:00 +10°C° 0 mm 2 m/S 767 mmHg 71%
    05:00 +10°C° 0 mm 2 m/S 767 mmHg 72%
    06:00 +12°C° 0 mm 2 m/S 767 mmHg 69%
    07:00 +13°C° 0 mm 2 m/S 767 mmHg 67%
    08:00 +12°C° 0 mm 3 m/S 767 mmHg 64%
    09:00 +14°C° 0 mm 3 m/S 768 mmHg 57%
    10:00 +17°C° 0 mm 3 m/S 768 mmHg 50%
    11:00 +18°C° 0 mm 4 m/S 768 mmHg 44%
    12:00 +19°C° 0 mm 4 m/S 768 mmHg 40%
    13:00 +20°C° 0 mm 4 m/S 767 mmHg 37%
    14:00 +21°C° 0 mm 4 m/S 767 mmHg 34%
    15:00 +21°C° 0 mm 4 m/S 767 mmHg 35%
    16:00 +20°C° 0 mm 5 m/S 766 mmHg 37%
    17:00 +20°C° 0 mm 5 m/S 766 mmHg 39%
    18:00 +17°C° 0 mm 5 m/S 766 mmHg 45%
    19:00 +16°C° 0 mm 5 m/S 767 mmHg 52%
    20:00 +14°C° 0 mm 5 m/S 767 mmHg 58%
    21:00 +14°C° 0 mm 5 m/S 767 mmHg 61%
    22:00 +13°C° 0 mm 5 m/S 767 mmHg 64%
    23:00 +13°C° 0 mm 4 m/S 767 mmHg 66%

    Morgen, 27 März, Mittwoch

    Zeit Temperatur Niederschläge Wind Luftdruck Luftfeuchtigkeit
    00:00 +13°C° 0 mm 4 m/S 767 mmHg 71%
    01:00 +13°C° 0 mm 4 m/S 767 mmHg 75%
    02:00 +13°C° 0 mm 4 m/S 767 mmHg 80%
    03:00 +12°C° 0 mm 4 m/S 767 mmHg 78%
    04:00 +12°C° 0 mm 4 m/S 767 mmHg 76%
    05:00 +12°C° 0 mm 4 m/S 766 mmHg 74%
    06:00 +12°C° 0 mm 4 m/S 766 mmHg 67%
    07:00 +13°C° 0 mm 5 m/S 766 mmHg 60%
    08:00 +14°C° 0 mm 5 m/S 766 mmHg 53%
    09:00 +16°C° 0 mm 6 m/S 766 mmHg 47%
    10:00 +19°C° 0 mm 6 m/S 767 mmHg 40%
    11:00 +22°C° 0 mm 6 m/S 767 mmHg 33%
    12:00 +22°C° 0 mm 6 m/S 766 mmHg 31%
    13:00 +23°C° 0 mm 7 m/S 765 mmHg 29%
    14:00 +24°C° 0 mm 7 m/S 765 mmHg 28%
    15:00 +24°C° 0 mm 7 m/S 764 mmHg 29%
    16:00 +24°C° 0 mm 6 m/S 764 mmHg 29%
    17:00 +24°C° 0 mm 6 m/S 763 mmHg 30%
    18:00 +22°C° 0 mm 6 m/S 763 mmHg 37%
    19:00 +21°C° 0 mm 7 m/S 763 mmHg 43%
    20:00 +18°C° 0 mm 7 m/S 763 mmHg 49%
    21:00 +19°C° 0 mm 6 m/S 763 mmHg 52%
    22:00 +19°C° 0 mm 6 m/S 763 mmHg 54%
    23:00 +19°C° 0 mm 6 m/S 763 mmHg 57%

    übermorgen, 28 März, Donnerstag

    Zeit Temperatur Niederschläge Wind Luftdruck Luftfeuchtigkeit
    00:00 +19°C° 0 mm 6 m/S 763 mmHg 58%
    01:00 +18°C° 0 mm 7 m/S 763 mmHg 58%
    02:00 +18°C° 0 mm 7 m/S 763 mmHg 59%
    03:00 +18°C° 0 mm 7 m/S 763 mmHg 60%
    04:00 +17°C° 0 mm 7 m/S 762 mmHg 62%
    05:00 +17°C° 0 mm 6 m/S 762 mmHg 63%
    06:00 +17°C° 0 mm 7 m/S 762 mmHg 62%
    07:00 +18°C° 0 mm 8 m/S 763 mmHg 61%
    08:00 +18°C° 0 mm 8 m/S 763 mmHg 60%
    09:00 +21°C° 0 mm 9 m/S 763 mmHg 55%
    10:00 +23°C° 0 mm 9 m/S 763 mmHg 49%
    11:00 +26°C° 0 mm 9 m/S 762 mmHg 44%
    12:00 +27°C° 0 mm 9 m/S 762 mmHg 41%
    13:00 +28°C° 0 mm 9 m/S 761 mmHg 38%
    14:00 +31°C° 0 mm 9 m/S 761 mmHg 35%
    15:00 +31°C° 0 mm 8 m/S 760 mmHg 35%
    16:00 +31°C° 0 mm 8 m/S 759 mmHg 35%
    17:00 +30°C° 0 mm 7 m/S 759 mmHg 35%
    18:00 +28°C° 0 mm 6 m/S 759 mmHg 38%
    19:00 +27°C° 0 mm 6 m/S 759 mmHg 41%
    20:00 +26°C° 0 mm 5 m/S 759 mmHg 45%
    21:00 +26°C° 0 mm 6 m/S 759 mmHg 46%
    22:00 +24°C° 0 mm 6 m/S 759 mmHg 47%
    23:00 +24°C° 0 mm 7 m/S 759 mmHg 49%

    29 März, Freitag

    Zeit Temperatur Niederschläge Wind Luftdruck Luftfeuchtigkeit
    00:00 +23°C° 0 mm 7 m/S 758 mmHg 50%
    01:00 +23°C° 0 mm 7 m/S 758 mmHg 51%
    02:00 +23°C° 0 mm 8 m/S 758 mmHg 52%
    03:00 +22°C° 0 mm 7 m/S 757 mmHg 55%
    04:00 +22°C° 0 mm 7 m/S 757 mmHg 59%
    05:00 +21°C° 0 mm 7 m/S 756 mmHg 62%
    06:00 +21°C° 0 mm 7 m/S 756 mmHg 62%
    07:00 +22°C° 0 mm 8 m/S 756 mmHg 62%
    08:00 +22°C° 0 mm 8 m/S 756 mmHg 62%
    09:00 +24°C° 0 mm 9 m/S 756 mmHg 56%
    10:00 +27°C° 0 mm 9 m/S 755 mmHg 49%
    11:00 +29°C° 0 mm 9 m/S 755 mmHg 43%
    12:00 +31°C° 0 mm 9 m/S 754 mmHg 40%
    13:00 +32°C° 0 mm 9 m/S 753 mmHg 36%
    14:00 +33°C° 0 mm 8 m/S 753 mmHg 33%
    15:00 +33°C° 0 mm 8 m/S 752 mmHg 33%
    16:00 +33°C° 0 mm 7 m/S 751 mmHg 32%
    17:00 +33°C° 0 mm 7 m/S 751 mmHg 32%
    18:00 +32°C° 0 mm 6 m/S 751 mmHg 35%
    19:00 +30°C° 0 mm 6 m/S 751 mmHg 38%
    20:00 +28°C° 0 mm 5 m/S 751 mmHg 41%
    21:00 +27°C° 0 mm 6 m/S 751 mmHg 40%
    22:00 +27°C° 0 mm 7 m/S 752 mmHg 40%
    23:00 +26°C° 0 mm 7 m/S 752 mmHg 40%

    30 März, Samstag

    Zeit Temperatur Niederschläge Wind Luftdruck Luftfeuchtigkeit
    00:00 +23°C° 0 mm 8 m/S 753 mmHg 43%
    01:00 +22°C° 0 mm 8 m/S 753 mmHg 46%
    02:00 +20°C° 0 mm 8 m/S 753 mmHg 49%
    03:00 +19°C° 0 mm 6 m/S 754 mmHg 53%
    04:00 +19°C° 0 mm 5 m/S 754 mmHg 58%
    05:00 +18°C° 0 mm 3 m/S 755 mmHg 63%
    06:00 +19°C° 0 mm 4 m/S 755 mmHg 61%
    07:00 +19°C° 0 mm 5 m/S 756 mmHg 58%
    08:00 +20°C° 0 mm 6 m/S 757 mmHg 55%
    09:00 +21°C° 0 mm 6 m/S 757 mmHg 49%
    10:00 +22°C° 0 mm 6 m/S 757 mmHg 43%
    11:00 +23°C° 0 mm 6 m/S 758 mmHg 36%
    12:00 +23°C° 0 mm 5 m/S 757 mmHg 35%
    13:00 +23°C° 0 mm 5 m/S 757 mmHg 33%
    14:00 +25°C° 0 mm 5 m/S 757 mmHg 32%
    15:00 +23°C° 0 mm 5 m/S 756 mmHg 32%
    16:00 +23°C° 0 mm 4 m/S 756 mmHg 33%
    17:00 +22°C° 0 mm 4 m/S 756 mmHg 33%
    18:00 +21°C° 0 mm 3 m/S 756 mmHg 36%
    19:00 +20°C° 0 mm 3 m/S 756 mmHg 39%
    20:00 +18°C° 0 mm 2 m/S 756 mmHg 41%
    21:00 +19°C° 0 mm 1 m/S 756 mmHg 43%
    22:00 +18°C° 0 mm 1 m/S 756 mmHg 44%
    23:00 +18°C° 0 mm 1 m/S 755 mmHg 46%

    31 März, Sonntag

    Zeit Temperatur Niederschläge Wind Luftdruck Luftfeuchtigkeit
    00:00 +17°C° 0 mm 2 m/S 755 mmHg 50%
    01:00 +16°C° 0 mm 2 m/S 755 mmHg 55%
    02:00 +16°C° 0 mm 3 m/S 754 mmHg 59%
    03:00 +16°C° 0 mm 3 m/S 754 mmHg 61%
    04:00 +16°C° 0 mm 3 m/S 753 mmHg 63%
    05:00 +16°C° 0 mm 3 m/S 753 mmHg 65%
    06:00 +17°C° 0 mm 4 m/S 753 mmHg 61%
    07:00 +17°C° 0 mm 5 m/S 753 mmHg 58%
    08:00 +19°C° 0 mm 5 m/S 753 mmHg 54%
    09:00 +21°C° 0 mm 5 m/S 753 mmHg 45%
    10:00 +25°C° 0 mm 5 m/S 752 mmHg 36%
    11:00 +28°C° 0 mm 5 m/S 752 mmHg 28%
    12:00 +28°C° 0 mm 6 m/S 752 mmHg 26%
    13:00 +29°C° 0 mm 6 m/S 751 mmHg 24%
    14:00 +29°C° 0 mm 6 m/S 751 mmHg 22%
    15:00 +27°C° 0 mm 6 m/S 751 mmHg 30%
    16:00 +23°C° 0 mm 6 m/S 751 mmHg 37%
    17:00 +21°C° 0 mm 6 m/S 751 mmHg 45%
    18:00 +21°C° 0 mm 5 m/S 752 mmHg 45%
    19:00 +20°C° 0 mm 4 m/S 752 mmHg 46%
    20:00 +20°C° 0 mm 4 m/S 753 mmHg 46%
    21:00 +19°C° 0 mm 3 m/S 753 mmHg 48%
    22:00 +19°C° 0 mm 2 m/S 753 mmHg 51%
    23:00 +19°C° 0 mm 1 m/S 754 mmHg 53%
    Mehr zeigen